Regional Weather Roundup
Issued by NWS Jackson, KY

Home | Current Version | Previous Version | Text Only | Print | Product List | Glossary Off
Versions: 1 2 3 4 5 6 7 8 9 10 11 12 13 14 15 16 17 18 19 20 21 22 23 24 25 26 27

000
ASUS43 KJKL 300810
RWRJKL

EAST KENTUCKY HOURLY WEATHER ROUNDUP
NATIONAL WEATHER SERVICE JACKSON KY
400 AM EDT FRI SEP 30 2016

NOTE: "FAIR" INDICATES FEW OR NO CLOUDS BELOW 12,000 FEET WITH
NO SIGNIFICANT WEATHER AND/OR OBSTRUCTIONS TO VISIBILITY.

* THESE REPORTS ARE NOT UNDER NWS QUALITY CONTROL AND MAY NOT
  REPORT WEATHER SUCH AS PRECIPITATION AND FOG.

KYZ079-080-083-085-087-088-110-112-115-119-120-300900
...EASTERN KENTUCKY...

CITY           SKY/WX    TMP DP  RH WIND       PRES   REMARKS
JACKSON        FOG       53  52  96 CALM      30.03F VSB 1/4
LONDON         CLOUDY    48  46  93 CALM      30.04F
SOMERSET*      MOCLDY    48  48 100 CALM      30.07F
MONTICELLO*    FOG       49  48  97 VRB7      30.07S VSB 1/2
WILLIAMSBURG*  CLOUDY    46  46 100 CALM      30.06S VSB 1/4
MIDDLESBORO*   CLOUDY    51  51  99 CALM      30.05F
HARLAN APT*    CLOUDY    52  50  93 CALM      30.04F
PIKE CO APT*   CLOUDY    54  54 100 SE3       30.03F FOG
BIG SANDY APT* CLOUDY    55  55 100 CALM      30.02F FOG
MOREHEAD APT*  CLOUDY    55  54  94 CALM      30.04F FOG
ASHLAND*       CLOUDY    61  57  88 CALM      30.00F
$$

KYZ035-036-041-042-044-050-067-078-099-300900
...CENTRAL KENTUCKY...

CITY           SKY/WX    TMP DP  RH WIND       PRES   REMARKS
MT STERLING*   FOG      N/A N/A N/A W3        30.04F VSB 3/4
FLEMING/MASON* CLOUDY    55  55  99 CALM      30.03F FOG
DANVILLE*      CLOUDY    48  48 100 CALM      30.06S FOG
LEXINGTON      CLOUDY    55  53  93 SW5       30.03F FOG
FRANKFORT      CLOUDY    56  53  90 CALM      30.02S FOG
LOUISVILLE     LGT RAIN  57  54  89 W8        30.01F
LEBANON*         N/A     54  54 100 CALM      30.04F
GLASGOW*       FOG      N/A N/A N/A CALM      30.04F VSB 1/2
BOWLING GREEN  MOCLDY    51  49  92 S3        30.04F
$$

KYZ091>093-OHZ055-061-077-WVZ005-015-034-035-042-300900
...SOUTHERN OHIO/WEST VIRGINIA...

CITY           SKY/WX    TMP DP  RH WIND       PRES   REMARKS
COVINGTON      CLOUDY    58  56  93 S7        30.02S
COLUMBUS       CLOUDY    62  61  96 E8        30.05S
DAYTON         CLOUDY    57  57 100 NE7       30.03F
WILMINGTON     PTCLDY    55  54  96 CALM      30.02S FOG
HUNTINGTON     FOG       58  57  97 S6        30.02F VSB 1/2
CHARLESTON     CLOUDY    59  57  93 CALM      30.02F FOG
PINEVILLE*     CLOUDY    57  54  91 MISG      30.08S FOG
BECKLEY        CLOUDY    57  56  96 NE7       30.03F FOG
BLUEFIELD      FOG       54  53  97 N5        30.04S VSB 3/4
LOGAN CO APT*  FOG       55  55 100 CALM      30.03F VSB 1/2
$$

VAZ002-007-008-TNZ017-027-036-066-071-300900
...SOUTHWEST VIRGINIA/EAST TENNESSEE...

CITY           SKY/WX    TMP DP  RH WIND       PRES   REMARKS
WISE*          FOG       52  52 100 NE6       30.04F VSB 3/4
JONESVILLE*    CLOUDY    52  50  93 CALM      30.06S
ABINGDON*      CLOUDY    57  56  97 CALM      30.02F
BRISTOL        CLOUDY    56  54  93 CALM      30.01F
MORRISTOWN*    CLOUDY    55  52  88 CALM      30.01F
SEVIERVILLE*   CLOUDY    57  48  72 W3        30.02S
KNOXVILLE      CLEAR     52  47  83 CALM      30.02F
OAK RIDGE      CLEAR     50  46  86 CALM      30.05F
CROSSVILLE     FOG       47  46  97 NW5       30.05F VSB 1/4
NASHVILLE      PTCLDY    50  48  93 CALM      30.06F
$$

...KEY TO REMARKS...
VSB - VISIBILITY IN MILES
WCI - WIND CHILL INDEX
HX  - HEAT INDEX

$$




USA.gov is the U.S. government's official web portal to all federal, state and local government web resources and services.